Location: Central Falls
(41.8900°N, 71.3929°W)
Time: 11:52:31
(UTC+00:00)

Altair - Pass Details

Date: 11 December 2023
Orbit: 1501 x 1682 km, 47.2° (Epoch: 20 February)

Event Time Altitude Azimuth Distance (km) Brightness Sun altitude
Rises 12:31:35 0° 254° (WSW) 4,863 9.8 3.6°
Reaches altitude 10° 12:34:47 10° 256° (WSW) 3,855 9.3 4.1°
Maximum altitude 12:44:37 76° 342° (NNW) 1,626 7.7 5.6°
Drops below altitude 10° 12:54:04 10° 68° (ENE) 3,718 10.0 6.9°
Sets 12:57:05 0° 70° (ENE) 4,682 10.5 7.4°
